Year,Month,Day,Hour,Minute,Value (Times are PST for temperature in C)
2014,08,24,00,00,17.40
2014,08,24,00,01,17.40
2014,08,24,00,02,17.50
2014,08,24,00,03,17.50
2014,08,24,00,04,17.50
2014,08,24,00,05,17.60
2014,08,24,00,06,17.70
2014,08,24,00,07,17.80
2014,08,24,00,08,17.80
2014,08,24,00,09,17.80
2014,08,24,00,10,17.90
2014,08,24,00,11,17.90
2014,08,24,00,12,18.00
2014,08,24,00,13,18.00
2014,08,24,00,14,18.10
2014,08,24,00,15,18.10
2014,08,24,00,16,18.20
2014,08,24,00,17,18.20
2014,08,24,00,18,18.20
2014,08,24,00,19,18.30
2014,08,24,00,20,18.40
2014,08,24,00,21,18.50
2014,08,24,00,22,18.60
2014,08,24,00,23,18.70
2014,08,24,00,24,18.70
2014,08,24,00,25,18.80
2014,08,24,00,26,18.80
2014,08,24,00,27,18.80
2014,08,24,00,28,18.80
2014,08,24,00,29,18.80
2014,08,24,00,30,18.80
2014,08,24,00,31,18.80
2014,08,24,00,32,18.80
2014,08,24,00,33,18.90
2014,08,24,00,34,18.90
2014,08,24,00,35,18.90
2014,08,24,00,36,18.90
2014,08,24,00,37,18.90
2014,08,24,00,38,18.90
2014,08,24,00,39,18.90
2014,08,24,00,40,18.90
2014,08,24,00,41,19.00
2014,08,24,00,42,19.00
2014,08,24,00,43,19.00
2014,08,24,00,44,19.10
2014,08,24,00,45,19.10
2014,08,24,00,46,19.10
2014,08,24,00,47,19.10
2014,08,24,00,48,19.20
2014,08,24,00,49,19.20
2014,08,24,00,50,19.20
2014,08,24,00,51,19.20
2014,08,24,00,52,19.20
2014,08,24,00,53,19.20
2014,08,24,00,54,19.20
2014,08,24,00,55,19.30
2014,08,24,00,56,19.30
2014,08,24,00,57,19.30
2014,08,24,00,58,19.30
2014,08,24,00,59,19.30
2014,08,24,01,00,19.30
2014,08,24,01,01,19.30
2014,08,24,01,02,19.30
2014,08,24,01,03,19.30
2014,08,24,01,04,19.30
2014,08,24,01,05,19.30
2014,08,24,01,06,19.20
2014,08,24,01,07,19.20
2014,08,24,01,08,19.20
2014,08,24,01,09,19.10
2014,08,24,01,10,19.10
2014,08,24,01,11,19.00
2014,08,24,01,12,19.00
2014,08,24,01,13,18.90
2014,08,24,01,14,18.80
2014,08,24,01,15,18.80
2014,08,24,01,16,18.70
2014,08,24,01,17,18.70
2014,08,24,01,18,18.60
2014,08,24,01,19,18.50
2014,08,24,01,20,18.50
2014,08,24,01,21,18.40
2014,08,24,01,22,18.40
2014,08,24,01,23,18.30
2014,08,24,01,24,18.30
2014,08,24,01,25,18.20
2014,08,24,01,26,18.10
2014,08,24,01,27,18.10
2014,08,24,01,28,18.00
2014,08,24,01,29,18.00
2014,08,24,01,30,17.90
2014,08,24,01,31,17.90
2014,08,24,01,32,17.80
2014,08,24,01,33,17.80
2014,08,24,01,34,17.70
2014,08,24,01,35,17.70
2014,08,24,01,36,17.70
2014,08,24,01,37,17.60
2014,08,24,01,38,17.60
2014,08,24,01,39,17.50
2014,08,24,01,40,17.50
2014,08,24,01,41,17.40
2014,08,24,01,42,17.40
2014,08,24,01,43,17.40
2014,08,24,01,44,17.30
2014,08,24,01,45,17.30
2014,08,24,01,46,17.30
2014,08,24,01,47,17.20
2014,08,24,01,48,17.20
2014,08,24,01,49,17.20
2014,08,24,01,50,17.20
2014,08,24,01,51,17.20
2014,08,24,01,52,17.10
2014,08,24,01,53,17.10
2014,08,24,01,54,17.10
2014,08,24,01,55,17.10
2014,08,24,01,56,17.00
2014,08,24,01,57,17.00
2014,08,24,01,58,16.90
2014,08,24,01,59,16.90
2014,08,24,02,00,16.90
2014,08,24,02,01,16.80
2014,08,24,02,02,16.80
2014,08,24,02,03,16.80
2014,08,24,02,04,16.70
2014,08,24,02,05,16.70
2014,08,24,02,06,16.70
2014,08,24,02,07,16.60
2014,08,24,02,08,16.60
2014,08,24,02,09,16.60
2014,08,24,02,10,16.60
2014,08,24,02,11,16.50
2014,08,24,02,12,16.50
2014,08,24,02,13,16.50
2014,08,24,02,14,16.40
2014,08,24,02,15,16.40
2014,08,24,02,16,16.40
2014,08,24,02,17,16.30
2014,08,24,02,18,16.30
2014,08,24,02,19,16.30
2014,08,24,02,20,16.30
2014,08,24,02,21,16.30
2014,08,24,02,22,16.20
2014,08,24,02,23,16.20
2014,08,24,02,24,16.20
2014,08,24,02,25,16.10
2014,08,24,02,26,16.10
2014,08,24,02,27,16.10
2014,08,24,02,28,16.10
2014,08,24,02,29,16.00
2014,08,24,02,30,16.00
2014,08,24,02,31,15.90
2014,08,24,02,32,15.90
2014,08,24,02,33,15.90
2014,08,24,02,34,15.90
2014,08,24,02,35,15.80
2014,08,24,02,36,15.80
2014,08,24,02,37,15.80
2014,08,24,02,38,15.80
2014,08,24,02,39,15.70
2014,08,24,02,40,15.70
2014,08,24,02,41,15.70
2014,08,24,02,42,15.70
2014,08,24,02,43,15.60
2014,08,24,02,44,15.60
2014,08,24,02,45,15.60
2014,08,24,02,46,15.60
2014,08,24,02,47,15.50
2014,08,24,02,48,15.50
2014,08,24,02,49,15.40
2014,08,24,02,50,15.40
2014,08,24,02,51,15.40
2014,08,24,02,52,15.40
2014,08,24,02,53,15.30
2014,08,24,02,54,15.30
2014,08,24,02,55,15.30
2014,08,24,02,56,15.30
2014,08,24,02,57,15.30
2014,08,24,02,58,15.30
2014,08,24,02,59,15.20
2014,08,24,03,00,15.20
2014,08,24,03,01,15.20
2014,08,24,03,02,15.20
2014,08,24,03,03,15.10
2014,08,24,03,04,15.10
2014,08,24,03,05,15.10
2014,08,24,03,06,15.10
2014,08,24,03,07,15.00
2014,08,24,03,08,15.00
2014,08,24,03,09,15.00
2014,08,24,03,10,14.90
2014,08,24,03,11,14.90
2014,08,24,03,12,14.90
2014,08,24,03,13,14.90
2014,08,24,03,14,14.80
2014,08,24,03,15,14.80
2014,08,24,03,16,14.80
2014,08,24,03,17,14.80
2014,08,24,03,18,14.80
2014,08,24,03,19,14.80
2014,08,24,03,20,14.80
2014,08,24,03,21,14.80
2014,08,24,03,22,14.80
2014,08,24,03,23,14.80
2014,08,24,03,24,14.80
2014,08,24,03,25,14.80
2014,08,24,03,26,14.80
2014,08,24,03,27,14.80
2014,08,24,03,28,14.80
2014,08,24,03,29,14.80
2014,08,24,03,30,14.80
2014,08,24,03,31,14.80
2014,08,24,03,32,14.80
2014,08,24,03,33,14.80
2014,08,24,03,34,14.90
2014,08,24,03,35,14.90
2014,08,24,03,36,14.90
2014,08,24,03,37,14.90
2014,08,24,03,38,14.90
2014,08,24,03,39,14.90
2014,08,24,03,40,14.90
2014,08,24,03,41,14.90
2014,08,24,03,42,14.90
2014,08,24,03,43,14.90
2014,08,24,03,44,14.90
2014,08,24,03,45,14.90
2014,08,24,03,46,14.90
2014,08,24,03,47,14.90
2014,08,24,03,48,14.90
2014,08,24,03,49,14.90
2014,08,24,03,50,14.90
2014,08,24,03,51,14.90
2014,08,24,03,52,14.90
2014,08,24,03,53,14.90
2014,08,24,03,54,14.90
2014,08,24,03,55,14.80
2014,08,24,03,56,14.80
2014,08,24,03,57,14.80
2014,08,24,03,58,14.80
2014,08,24,03,59,14.80
2014,08,24,04,00,14.80
2014,08,24,04,01,14.80
2014,08,24,04,02,14.70
2014,08,24,04,03,14.70
2014,08,24,04,04,14.70
2014,08,24,04,05,14.70
2014,08,24,04,06,14.70
2014,08,24,04,07,14.70
2014,08,24,04,08,14.70
2014,08,24,04,09,14.70
2014,08,24,04,10,14.70
2014,08,24,04,11,14.70
2014,08,24,04,12,14.60
2014,08,24,04,13,14.60
2014,08,24,04,14,14.60
2014,08,24,04,15,14.60
2014,08,24,04,16,14.60
2014,08,24,04,17,14.60
2014,08,24,04,18,14.60
2014,08,24,04,19,14.60
2014,08,24,04,20,14.50
2014,08,24,04,21,14.50
2014,08,24,04,22,14.50
2014,08,24,04,23,14.50
2014,08,24,04,24,14.50
2014,08,24,04,25,14.40
2014,08,24,04,26,14.40
2014,08,24,04,27,14.40
2014,08,24,04,28,14.40
2014,08,24,04,29,14.40
2014,08,24,04,30,14.30
2014,08,24,04,31,14.30
2014,08,24,04,32,14.30
2014,08,24,04,33,14.30
2014,08,24,04,34,14.30
2014,08,24,04,35,14.20
2014,08,24,04,36,14.20
2014,08,24,04,37,14.20
2014,08,24,04,38,14.20
2014,08,24,04,39,14.20
2014,08,24,04,40,14.10
2014,08,24,04,41,14.10
2014,08,24,04,42,14.10
2014,08,24,04,43,14.10
2014,08,24,04,44,14.10
2014,08,24,04,45,14.10
2014,08,24,04,46,14.00
2014,08,24,04,47,14.00
2014,08,24,04,48,14.00
2014,08,24,04,49,13.90
2014,08,24,04,50,13.90
2014,08,24,04,51,13.90
2014,08,24,04,52,13.90
2014,08,24,04,53,13.90
2014,08,24,04,54,13.90
2014,08,24,04,55,13.90
2014,08,24,04,56,13.80
2014,08,24,04,57,13.80
2014,08,24,04,58,13.80
2014,08,24,04,59,13.80
2014,08,24,05,00,13.80
2014,08,24,05,01,13.80
2014,08,24,05,02,13.80
2014,08,24,05,03,13.80
2014,08,24,05,04,13.80
2014,08,24,05,05,13.70
2014,08,24,05,06,13.70
2014,08,24,05,07,13.70
2014,08,24,05,08,13.70
2014,08,24,05,09,13.70
2014,08,24,05,10,13.70
2014,08,24,05,11,13.70
2014,08,24,05,12,13.70
2014,08,24,05,13,13.60
2014,08,24,05,14,13.60
2014,08,24,05,15,13.60
2014,08,24,05,16,13.60
2014,08,24,05,17,13.60
2014,08,24,05,18,13.60
2014,08,24,05,19,13.50
2014,08,24,05,20,13.50
2014,08,24,05,21,13.50
2014,08,24,05,22,13.50
2014,08,24,05,23,13.40
2014,08,24,05,24,13.40
2014,08,24,05,25,13.40
2014,08,24,05,26,13.40
2014,08,24,05,27,13.40
2014,08,24,05,28,13.40
2014,08,24,05,29,13.40
2014,08,24,05,30,13.40
2014,08,24,05,31,13.30
2014,08,24,05,32,13.30
2014,08,24,05,33,13.30
2014,08,24,05,34,13.30
2014,08,24,05,35,13.30
2014,08,24,05,36,13.30
2014,08,24,05,37,13.30
2014,08,24,05,38,13.30
2014,08,24,05,39,13.30
2014,08,24,05,40,13.30
2014,08,24,05,41,13.30
2014,08,24,05,42,13.30
2014,08,24,05,43,13.30
2014,08,24,05,44,13.20
2014,08,24,05,45,13.20
2014,08,24,05,46,13.20
2014,08,24,05,47,13.20
2014,08,24,05,48,13.20
2014,08,24,05,49,13.20
2014,08,24,05,50,13.20
2014,08,24,05,51,13.20
2014,08,24,05,52,13.20
2014,08,24,05,53,13.20
2014,08,24,05,54,13.20
2014,08,24,05,55,13.20
2014,08,24,05,56,13.10
2014,08,24,05,57,13.10
2014,08,24,05,58,13.10
2014,08,24,05,59,13.10
2014,08,24,06,00,13.10
2014,08,24,06,01,13.10
2014,08,24,06,02,13.10
2014,08,24,06,03,13.10
2014,08,24,06,04,13.10
2014,08,24,06,05,13.10
2014,08,24,06,06,13.00
2014,08,24,06,07,13.00
2014,08,24,06,08,13.00
2014,08,24,06,09,13.00
2014,08,24,06,10,13.00
2014,08,24,06,11,13.00
2014,08,24,06,12,13.00
2014,08,24,06,13,12.90
2014,08,24,06,14,12.90
2014,08,24,06,15,12.90
2014,08,24,06,16,12.90
2014,08,24,06,17,12.90
2014,08,24,06,18,12.90
2014,08,24,06,19,12.90
2014,08,24,06,20,12.90
2014,08,24,06,21,12.80
2014,08,24,06,22,12.80
2014,08,24,06,23,12.80
2014,08,24,06,24,12.80
2014,08,24,06,25,12.80
2014,08,24,06,26,12.80
2014,08,24,06,27,12.80
2014,08,24,06,28,12.70
2014,08,24,06,29,12.70
2014,08,24,06,30,12.70
2014,08,24,06,31,12.70
2014,08,24,06,32,12.70
2014,08,24,06,33,12.70
2014,08,24,06,34,12.70
2014,08,24,06,35,12.70
2014,08,24,06,36,12.70
2014,08,24,06,37,12.70
2014,08,24,06,38,12.70
2014,08,24,06,39,12.70
2014,08,24,06,40,12.60
2014,08,24,06,41,12.60
2014,08,24,06,42,12.60
2014,08,24,06,43,12.60
2014,08,24,06,44,12.60
2014,08,24,06,45,12.60
2014,08,24,06,46,12.60
2014,08,24,06,47,12.50
2014,08,24,06,48,12.60
2014,08,24,06,49,12.50
2014,08,24,06,50,12.50
2014,08,24,06,51,12.50
2014,08,24,06,52,12.50
2014,08,24,06,53,12.50
2014,08,24,06,54,12.50
2014,08,24,06,55,12.50
2014,08,24,06,56,12.50
2014,08,24,06,57,12.50
2014,08,24,06,58,12.50
2014,08,24,06,59,12.50
2014,08,24,07,00,12.50
2014,08,24,07,01,12.50
2014,08,24,07,02,12.50
2014,08,24,07,03,12.50
2014,08,24,07,04,12.60
2014,08,24,07,05,12.60
2014,08,24,07,06,12.60
2014,08,24,07,07,12.60
2014,08,24,07,08,12.60
2014,08,24,07,09,12.60
2014,08,24,07,10,12.60
2014,08,24,07,11,12.60
2014,08,24,07,12,12.60
2014,08,24,07,13,12.60
2014,08,24,07,14,12.70
2014,08,24,07,15,12.70
2014,08,24,07,16,12.70
2014,08,24,07,17,12.70
2014,08,24,07,18,12.70
2014,08,24,07,19,12.70
2014,08,24,07,20,12.70
2014,08,24,07,21,12.70
2014,08,24,07,22,12.70
2014,08,24,07,23,12.80
2014,08,24,07,24,12.80
2014,08,24,07,25,12.80
2014,08,24,07,26,12.80
2014,08,24,07,27,12.80
2014,08,24,07,28,12.80
2014,08,24,07,29,12.80
2014,08,24,07,30,12.90
2014,08,24,07,31,12.90
2014,08,24,07,32,12.90
2014,08,24,07,33,12.90
2014,08,24,07,34,12.90
2014,08,24,07,35,12.90
2014,08,24,07,36,12.90
2014,08,24,07,37,12.90
2014,08,24,07,38,12.90
2014,08,24,07,39,12.90
2014,08,24,07,40,13.00
2014,08,24,07,41,13.00
2014,08,24,07,42,13.00
2014,08,24,07,43,13.10
2014,08,24,07,44,13.10
2014,08,24,07,45,13.10
2014,08,24,07,46,13.10
2014,08,24,07,47,13.10
2014,08,24,07,48,13.20
2014,08,24,07,49,13.20
2014,08,24,07,50,13.20
2014,08,24,07,51,13.20
2014,08,24,07,52,13.30
2014,08,24,07,53,13.30
2014,08,24,07,54,13.30
2014,08,24,07,55,13.30
2014,08,24,07,56,13.40
2014,08,24,07,57,13.40
2014,08,24,07,58,13.50
2014,08,24,07,59,13.50
2014,08,24,08,00,13.60
2014,08,24,08,01,13.60
2014,08,24,08,02,13.70
2014,08,24,08,03,13.70
2014,08,24,08,04,13.70
2014,08,24,08,05,13.70
2014,08,24,08,06,13.80
2014,08,24,08,07,13.80
2014,08,24,08,08,13.80
2014,08,24,08,09,13.90
2014,08,24,08,10,13.90
2014,08,24,08,11,14.00
2014,08,24,08,12,14.00
2014,08,24,08,13,14.10
2014,08,24,08,14,14.20
2014,08,24,08,15,14.20
2014,08,24,08,16,14.30
2014,08,24,08,17,14.30
2014,08,24,08,18,14.40
2014,08,24,08,19,14.40
2014,08,24,08,20,14.50
2014,08,24,08,21,14.50
2014,08,24,08,22,14.60
2014,08,24,08,23,14.60
2014,08,24,08,24,14.70
2014,08,24,08,25,14.80
2014,08,24,08,26,14.80
2014,08,24,08,27,14.90
2014,08,24,08,28,15.00
2014,08,24,08,29,15.10
2014,08,24,08,30,15.20
2014,08,24,08,31,15.30
2014,08,24,08,32,15.50
2014,08,24,08,33,15.60
2014,08,24,08,34,15.80
2014,08,24,08,35,16.10
2014,08,24,08,36,16.20
2014,08,24,08,37,16.40
2014,08,24,08,38,16.60
2014,08,24,08,39,16.80
2014,08,24,08,40,17.00
2014,08,24,08,41,17.20
2014,08,24,08,42,17.30
2014,08,24,08,43,17.40
2014,08,24,08,44,17.50
2014,08,24,08,45,17.60
2014,08,24,08,46,17.70
2014,08,24,08,47,17.80
2014,08,24,08,48,17.80
2014,08,24,08,49,17.90
2014,08,24,08,50,17.90
2014,08,24,08,51,18.00
2014,08,24,08,52,18.00
2014,08,24,08,53,18.00
2014,08,24,08,54,18.10
2014,08,24,08,55,18.10
2014,08,24,08,56,18.10
2014,08,24,08,57,18.10
2014,08,24,08,58,18.10
2014,08,24,08,59,18.10
2014,08,24,09,00,18.20
2014,08,24,09,01,18.20
2014,08,24,09,02,18.20
2014,08,24,09,03,18.20
2014,08,24,09,04,18.20
2014,08,24,09,05,18.30
2014,08,24,09,06,18.30
2014,08,24,09,07,18.30
2014,08,24,09,08,18.30
2014,08,24,09,09,18.30
2014,08,24,09,10,18.30
2014,08,24,09,11,18.40
2014,08,24,09,12,18.40
2014,08,24,09,13,18.50
2014,08,24,09,14,18.60
2014,08,24,09,15,18.60
2014,08,24,09,16,18.70
2014,08,24,09,17,18.70
2014,08,24,09,18,18.70
2014,08,24,09,19,18.70
2014,08,24,09,20,18.70
2014,08,24,09,21,18.70
2014,08,24,09,22,18.70
2014,08,24,09,23,18.70
2014,08,24,09,24,18.70
2014,08,24,09,25,18.70
2014,08,24,09,26,18.60
2014,08,24,09,27,18.60
2014,08,24,09,28,18.60
2014,08,24,09,29,18.60
2014,08,24,09,30,18.60
2014,08,24,09,31,18.60
2014,08,24,09,32,18.60
2014,08,24,09,33,18.60
2014,08,24,09,34,18.60
2014,08,24,09,35,18.60
2014,08,24,09,36,18.60
2014,08,24,09,37,18.60
2014,08,24,09,38,18.60
2014,08,24,09,39,18.60
2014,08,24,09,40,18.60
2014,08,24,09,41,18.60
2014,08,24,09,42,18.60
2014,08,24,09,43,18.70
2014,08,24,09,44,18.70
2014,08,24,09,45,18.70
2014,08,24,09,46,18.70
2014,08,24,09,47,18.70
2014,08,24,09,48,18.70
2014,08,24,09,49,18.80
2014,08,24,09,50,18.80
2014,08,24,09,51,18.80
2014,08,24,09,52,18.80
2014,08,24,09,53,18.80
2014,08,24,09,54,18.80
2014,08,24,09,55,18.80
2014,08,24,09,56,18.80
2014,08,24,09,57,18.80
2014,08,24,09,58,18.90
2014,08,24,09,59,18.90
2014,08,24,10,00,18.90
2014,08,24,10,01,18.90
2014,08,24,10,02,19.00
2014,08,24,10,03,19.00
2014,08,24,10,04,19.10
2014,08,24,10,05,19.10
2014,08,24,10,06,19.10
2014,08,24,10,07,19.10
2014,08,24,10,08,19.20
2014,08,24,10,09,19.20
2014,08,24,10,10,19.20
2014,08,24,10,11,19.30
2014,08,24,10,12,19.30
2014,08,24,10,13,19.30
2014,08,24,10,14,19.30
2014,08,24,10,15,19.40
2014,08,24,10,16,19.40
2014,08,24,10,17,19.40
2014,08,24,10,18,19.40
2014,08,24,10,19,19.40
2014,08,24,10,20,19.40
2014,08,24,10,21,19.40
2014,08,24,10,22,19.40
2014,08,24,10,23,19.40
2014,08,24,10,24,19.40
2014,08,24,10,25,19.40
2014,08,24,10,26,19.50
2014,08,24,10,27,19.50
2014,08,24,10,28,19.60
2014,08,24,10,29,19.60
2014,08,24,10,30,19.70
2014,08,24,10,31,19.70
2014,08,24,10,32,19.70
2014,08,24,10,33,19.70
2014,08,24,10,34,19.60
2014,08,24,10,35,19.60
2014,08,24,10,36,19.60
2014,08,24,10,37,19.70
2014,08,24,10,38,19.60
2014,08,24,10,39,19.60
2014,08,24,10,40,19.60
2014,08,24,10,41,19.60
2014,08,24,10,42,19.60
2014,08,24,10,43,19.60
2014,08,24,10,44,19.60
2014,08,24,10,45,19.60
2014,08,24,10,46,19.60
2014,08,24,10,47,19.70
2014,08,24,10,48,19.70
2014,08,24,10,49,19.80
2014,08,24,10,50,19.80
2014,08,24,10,51,19.70
2014,08,24,10,52,19.70
2014,08,24,10,53,19.70
2014,08,24,10,54,19.70
2014,08,24,10,55,19.60
2014,08,24,10,56,19.60
2014,08,24,10,57,19.60
2014,08,24,10,58,19.60
2014,08,24,10,59,19.70
2014,08,24,11,00,19.70
2014,08,24,11,01,19.80
2014,08,24,11,02,19.90
2014,08,24,11,03,19.90
2014,08,24,11,04,20.00
2014,08,24,11,05,20.00
2014,08,24,11,06,20.00
2014,08,24,11,07,20.10
2014,08,24,11,08,20.10
2014,08,24,11,09,20.10
2014,08,24,11,10,20.00
2014,08,24,11,11,20.00
2014,08,24,11,12,20.00
2014,08,24,11,13,20.00
2014,08,24,11,14,20.10
2014,08,24,11,15,20.20
2014,08,24,11,16,20.30
2014,08,24,11,17,20.30
2014,08,24,11,18,20.20
2014,08,24,11,19,20.20
2014,08,24,11,20,20.10
2014,08,24,11,21,20.00
2014,08,24,11,22,20.00
2014,08,24,11,23,19.90
2014,08,24,11,24,19.90
2014,08,24,11,25,19.80
2014,08,24,11,26,19.80
2014,08,24,11,27,19.80
2014,08,24,11,28,19.80
2014,08,24,11,29,19.80
2014,08,24,11,30,19.80
2014,08,24,11,31,19.90
2014,08,24,11,32,19.90
2014,08,24,11,33,20.00
2014,08,24,11,34,20.10
2014,08,24,11,35,20.10
2014,08,24,11,36,20.10
2014,08,24,11,37,20.20
2014,08,24,11,38,20.20
2014,08,24,11,39,20.20
2014,08,24,11,40,20.30
2014,08,24,11,41,20.30
2014,08,24,11,42,20.30
2014,08,24,11,43,20.30
2014,08,24,11,44,20.30
2014,08,24,11,45,20.20
2014,08,24,11,46,20.20
2014,08,24,11,47,20.20
2014,08,24,11,48,20.20
2014,08,24,11,49,20.30
2014,08,24,11,50,20.30
2014,08,24,11,51,20.30
2014,08,24,11,52,20.30
2014,08,24,11,53,20.20
2014,08,24,11,54,20.20
2014,08,24,11,55,20.20
2014,08,24,11,56,20.20
2014,08,24,11,57,20.20
2014,08,24,11,58,20.20
2014,08,24,11,59,20.20
2014,08,24,12,00,20.20
2014,08,24,12,01,20.20
2014,08,24,12,02,20.20
2014,08,24,12,03,20.20
2014,08,24,12,04,20.20
2014,08,24,12,05,20.20
2014,08,24,12,06,20.20
2014,08,24,12,07,20.20
2014,08,24,12,08,20.20
2014,08,24,12,09,20.10
2014,08,24,12,10,20.10
2014,08,24,12,11,20.20
2014,08,24,12,12,20.20
2014,08,24,12,13,20.20
2014,08,24,12,14,20.20
2014,08,24,12,15,20.20
2014,08,24,12,16,20.20
2014,08,24,12,17,20.20
2014,08,24,12,18,20.20
2014,08,24,12,19,20.10
2014,08,24,12,20,20.10
2014,08,24,12,21,20.10
2014,08,24,12,22,20.10
2014,08,24,12,23,20.10
2014,08,24,12,24,20.20
2014,08,24,12,25,20.20
2014,08,24,12,26,20.20
2014,08,24,12,27,20.20
2014,08,24,12,28,20.20
2014,08,24,12,29,20.20
2014,08,24,12,30,20.20
2014,08,24,12,31,20.20
2014,08,24,12,32,20.20
2014,08,24,12,33,20.30
2014,08,24,12,34,20.40
2014,08,24,12,35,20.50
2014,08,24,12,36,20.50
2014,08,24,12,37,20.60
2014,08,24,12,38,20.70
2014,08,24,12,39,20.80
2014,08,24,12,40,20.80
2014,08,24,12,41,20.80
2014,08,24,12,42,20.80
2014,08,24,12,43,20.80
2014,08,24,12,44,20.80
2014,08,24,12,45,20.80
2014,08,24,12,46,20.70
2014,08,24,12,47,20.70
2014,08,24,12,48,20.70
2014,08,24,12,49,20.70
2014,08,24,12,50,20.70
2014,08,24,12,51,20.70
2014,08,24,12,52,20.70
2014,08,24,12,53,20.70
2014,08,24,12,54,20.70
2014,08,24,12,55,20.70
2014,08,24,12,56,20.70
2014,08,24,12,57,20.80
2014,08,24,12,58,20.80
2014,08,24,12,59,20.90
2014,08,24,13,00,21.00
2014,08,24,13,01,21.10
2014,08,24,13,02,21.20
2014,08,24,13,03,21.30
2014,08,24,13,04,21.20
2014,08,24,13,05,21.10
2014,08,24,13,06,21.10
2014,08,24,13,07,21.10
2014,08,24,13,08,21.10
2014,08,24,13,09,21.20
2014,08,24,13,10,21.30
2014,08,24,13,11,21.40
2014,08,24,13,12,21.50
2014,08,24,13,13,21.50
2014,08,24,13,14,21.60
2014,08,24,13,15,21.70
2014,08,24,13,16,21.70
2014,08,24,13,17,21.70
2014,08,24,13,18,21.80
2014,08,24,13,19,21.80
2014,08,24,13,20,21.80
2014,08,24,13,21,21.80
2014,08,24,13,22,21.80
2014,08,24,13,23,21.80
2014,08,24,13,24,21.90
2014,08,24,13,25,21.90
2014,08,24,13,26,22.00
2014,08,24,13,27,22.00
2014,08,24,13,28,22.10
2014,08,24,13,29,22.10
2014,08,24,13,30,22.10
2014,08,24,13,31,22.10
2014,08,24,13,32,22.10
2014,08,24,13,33,22.10
2014,08,24,13,34,22.10
2014,08,24,13,35,22.00
2014,08,24,13,36,22.00
2014,08,24,13,37,22.00
2014,08,24,13,38,22.10
2014,08,24,13,39,22.20
2014,08,24,13,40,22.30
2014,08,24,13,41,22.30
2014,08,24,13,42,22.20
2014,08,24,13,43,22.20
2014,08,24,13,44,22.30
2014,08,24,13,45,22.30
2014,08,24,13,46,22.30
2014,08,24,13,47,22.30
2014,08,24,13,48,22.30
2014,08,24,13,49,22.40
2014,08,24,13,50,22.40
2014,08,24,13,51,22.40
2014,08,24,13,52,22.40
2014,08,24,13,53,22.40
2014,08,24,13,54,22.40
2014,08,24,13,55,22.50
2014,08,24,13,56,22.60
2014,08,24,13,57,22.60
2014,08,24,13,58,22.70
2014,08,24,13,59,22.70
2014,08,24,14,00,22.70
2014,08,24,14,01,22.70
2014,08,24,14,02,22.70
2014,08,24,14,03,22.60
2014,08,24,14,04,22.70
2014,08,24,14,05,22.60
2014,08,24,14,06,22.60
2014,08,24,14,07,22.60
2014,08,24,14,08,22.70
2014,08,24,14,09,22.70
2014,08,24,14,10,22.80
2014,08,24,14,11,22.90
2014,08,24,14,12,22.90
2014,08,24,14,13,23.00
2014,08,24,14,14,23.10
2014,08,24,14,15,23.20
2014,08,24,14,16,23.20
2014,08,24,14,17,23.30
2014,08,24,14,18,23.30
2014,08,24,14,19,23.30
2014,08,24,14,20,23.30
2014,08,24,14,21,23.30
2014,08,24,14,22,23.40
2014,08,24,14,23,23.50
2014,08,24,14,24,23.70
2014,08,24,14,25,23.80
2014,08,24,14,26,23.80
2014,08,24,14,27,23.70
2014,08,24,14,28,23.60
2014,08,24,14,29,23.50
2014,08,24,14,30,23.40
2014,08,24,14,31,23.40
2014,08,24,14,32,23.40
2014,08,24,14,33,23.40
2014,08,24,14,34,23.40
2014,08,24,14,35,23.40
2014,08,24,14,36,23.50
2014,08,24,14,37,23.70
2014,08,24,14,38,23.80
2014,08,24,14,39,23.80
2014,08,24,14,40,23.80
2014,08,24,14,41,23.80
2014,08,24,14,42,23.90
2014,08,24,14,43,23.90
2014,08,24,14,44,23.90
2014,08,24,14,45,23.80
2014,08,24,14,46,23.80
2014,08,24,14,47,23.80
2014,08,24,14,48,23.80
2014,08,24,14,49,23.90
2014,08,24,14,50,23.90
2014,08,24,14,51,24.00
2014,08,24,14,52,24.10
2014,08,24,14,53,24.10
2014,08,24,14,54,24.20
2014,08,24,14,55,24.20
2014,08,24,14,56,24.20
2014,08,24,14,57,24.20
2014,08,24,14,58,24.20
2014,08,24,14,59,24.10
2014,08,24,15,00,24.10
2014,08,24,15,01,24.00
2014,08,24,15,02,23.90
2014,08,24,15,03,23.90
2014,08,24,15,04,23.90
2014,08,24,15,05,23.90
2014,08,24,15,06,24.00
2014,08,24,15,07,24.10
2014,08,24,15,08,24.20
2014,08,24,15,09,24.10
2014,08,24,15,10,24.10
2014,08,24,15,11,24.00
2014,08,24,15,12,23.90
2014,08,24,15,13,23.80
2014,08,24,15,14,23.80
2014,08,24,15,15,23.80
2014,08,24,15,16,23.80
2014,08,24,15,17,23.80
2014,08,24,15,18,23.80
2014,08,24,15,19,23.80
2014,08,24,15,20,23.80
2014,08,24,15,21,23.80
2014,08,24,15,22,23.80
2014,08,24,15,23,23.90
2014,08,24,15,24,23.90
2014,08,24,15,25,23.80
2014,08,24,15,26,23.80
2014,08,24,15,27,23.80
2014,08,24,15,28,23.80
2014,08,24,15,29,23.80
2014,08,24,15,30,23.90
2014,08,24,15,31,23.90
2014,08,24,15,32,24.00
2014,08,24,15,33,24.10
2014,08,24,15,34,24.20
2014,08,24,15,35,24.20
2014,08,24,15,36,24.20
2014,08,24,15,37,24.30
2014,08,24,15,38,24.40
2014,08,24,15,39,24.40
2014,08,24,15,40,24.40
2014,08,24,15,41,24.40
2014,08,24,15,42,24.30
2014,08,24,15,43,24.30
2014,08,24,15,44,24.30
2014,08,24,15,45,24.30
2014,08,24,15,46,24.30
2014,08,24,15,47,24.30
2014,08,24,15,48,24.40
2014,08,24,15,49,24.40
2014,08,24,15,50,24.40
2014,08,24,15,51,24.40
2014,08,24,15,52,24.30
2014,08,24,15,53,24.30
2014,08,24,15,54,24.30
2014,08,24,15,55,24.20
2014,08,24,15,56,24.20
2014,08,24,15,57,24.10
2014,08,24,15,58,24.10
2014,08,24,15,59,24.10
2014,08,24,16,00,24.10
2014,08,24,16,01,24.10
2014,08,24,16,02,24.10
2014,08,24,16,03,24.10
2014,08,24,16,04,24.10
2014,08,24,16,05,24.20
2014,08,24,16,06,24.20
2014,08,24,16,07,24.30
2014,08,24,16,08,24.30
2014,08,24,16,09,24.30
2014,08,24,16,10,24.30
2014,08,24,16,11,24.30
2014,08,24,16,12,24.20
2014,08,24,16,13,24.10
2014,08,24,16,14,24.10
2014,08,24,16,15,24.20
2014,08,24,16,16,24.30
2014,08,24,16,17,24.40
2014,08,24,16,18,24.50
2014,08,24,16,19,24.50
2014,08,24,16,20,24.60
2014,08,24,16,21,24.60
2014,08,24,16,22,24.60
2014,08,24,16,23,24.60
2014,08,24,16,24,24.60
2014,08,24,16,25,24.60
2014,08,24,16,26,24.70
2014,08,24,16,27,24.70
2014,08,24,16,28,24.70
2014,08,24,16,29,24.70
2014,08,24,16,30,24.70
2014,08,24,16,31,24.80
2014,08,24,16,32,24.80
2014,08,24,16,33,24.90
2014,08,24,16,34,24.90
2014,08,24,16,35,24.90
2014,08,24,16,36,24.90
2014,08,24,16,37,24.90
2014,08,24,16,38,24.90
2014,08,24,16,39,25.00
2014,08,24,16,40,25.00
2014,08,24,16,41,25.00
2014,08,24,16,42,24.90
2014,08,24,16,43,24.90
2014,08,24,16,44,24.90
2014,08,24,16,45,24.80
2014,08,24,16,46,24.80
2014,08,24,16,47,24.70
2014,08,24,16,48,24.70
2014,08,24,16,49,24.60
2014,08,24,16,50,24.60
2014,08,24,16,51,24.60
2014,08,24,16,52,24.60
2014,08,24,16,53,24.60
2014,08,24,16,54,24.70
2014,08,24,16,55,24.70
2014,08,24,16,56,24.80
2014,08,24,16,57,24.90
2014,08,24,16,58,25.00
2014,08,24,16,59,25.10
2014,08,24,17,00,25.10
2014,08,24,17,01,25.20
2014,08,24,17,02,25.20
2014,08,24,17,03,25.20
2014,08,24,17,04,25.20
2014,08,24,17,05,25.20
2014,08,24,17,06,25.20
2014,08,24,17,07,25.20
2014,08,24,17,08,25.20
2014,08,24,17,09,25.20
2014,08,24,17,10,25.10
2014,08,24,17,11,25.10
2014,08,24,17,12,25.00
2014,08,24,17,13,25.00
2014,08,24,17,14,24.90
2014,08,24,17,15,24.90
2014,08,24,17,16,24.90
2014,08,24,17,17,24.90
2014,08,24,17,18,24.90
2014,08,24,17,19,25.00